SV1TGC Weather Reports


time (UTC)temp
C
wind
direction
speed
KPH
gust
KPH
rain 1hr
cm
rain 24hr
cm
rain mn
cm
humidity
%
barometer
mb
20260505041600 12 0 0.0 3.2 0.00 0.00 0.00 72 1016.6
20260505041035 12 0 0.0 4.8 0.00 0.00 0.00 71 1016.6
20260505040534 13 0 0.0 4.8 0.00 0.00 0.00 70 1016.6
20260505040048 13 350 0.0 6.4 0.00 0.00 0.00 69 1016.5
20260505035533 13 0 0.0 6.4 0.00 0.00 0.00 68 1016.5
20260505035033 13 352 0.0 12.9 0.00 0.00 0.00 67 1016.5
20260505034544 14 351 3.2 12.9 0.00 0.00 0.00 67 1016.4
20260505034033 14 351 4.8 9.7 0.00 0.00 0.00 67 1016.4
20260505033533 14 352 3.2 8.0 0.00 0.00 0.00 68 1016.5
20260505033048 14 345 1.6 8.0 0.00 0.00 0.00 68 1016.5
20260505032536 14 0 1.6 9.7 0.00 0.00 0.00 69 1016.6
20260505032034 14 350 1.6 9.7 0.00 0.00 0.00 70 1016.5
20260505031548 13 352 1.6 9.7 0.00 0.00 0.00 72 1016.5
20260505031033 13 352 1.6 8.0 0.00 0.00 0.00 72 1016.6
20260505030536 13 337 1.6 12.9 0.00 0.00 0.00 72 1016.4
20260505030107 13 0 1.6 12.9 0.00 0.00 0.00 74 1016.5
20260505025534 13 346 4.8 9.7 0.00 0.00 0.00 76 1016.5
20260505025036 12 338 4.8 8.0 0.00 0.00 0.00 78 1016.5
20260505024547 11 331 1.6 6.4 0.00 0.00 0.00 77 1016.6
20260505024034 11 351 0.0 6.4 0.00 0.00 0.00 76 1016.5
20260505023535 11 0 1.6 6.4 0.00 0.00 0.00 76 1016.7
20260505023059 11 0 0.0 3.2 0.00 0.00 0.00 75 1016.6
20260505022535 11 0 0.0 3.2 0.00 0.00 0.00 73 1016.6
20260505022035 12 0 0.0 3.2 0.00 0.00 0.00 73 1016.7
20260505021556 12 348 0.0 3.2 0.00 0.00 0.00 72 1016.7
20260505021035 12 0 0.0 6.4 0.00 0.00 0.00 71 1016.7
20260505020536 12 0 0.0 6.4 0.00 0.00 0.00 70 1016.8
20260505015535 13 352 1.6 9.7 0.00 0.00 0.00 69 1016.8
20260505015035 13 352 3.2 12.9 0.00 0.00 0.00 70 1016.8
20260505014549 13 348 4.8 12.9 0.00 0.00 0.00 71 1016.8
20260505014035 13 348 4.8 9.7 0.00 0.00 0.00 71 1016.8
20260505013538 13 349 4.8 12.9 0.00 0.00 0.00 70 1016.9
20260505013049 13 349 4.8 12.9 0.00 0.00 0.00 71 1016.9
20260505012534 12 349 8.0 12.9 0.00 0.00 0.00 71 1017.0
20260505012035 12 350 3.2 8.0 0.00 0.00 0.00 71 1017.0
20260505011547 12 350 4.8 8.0 0.00 0.00 0.00 72 1017.0
20260505011035 12 351 1.6 6.4 0.00 0.00 0.00 72 1017.0
20260505010537 11 350 3.2 8.0 0.00 0.00 0.00 74 1017.1
20260505010105 11 350 3.2 8.0 0.00 0.00 0.00 75 1017.2
20260505005535 11 350 4.8 6.4 0.00 0.00 0.00 76 1017.1
20260505005038 11 350 3.2 6.4 0.00 0.00 0.00 77 1017.1
20260505004545 11 350 1.6 4.8 0.00 0.00 0.00 78 1017.1
20260505004034 11 350 1.6 4.8 0.00 0.00 0.00 78 1017.2
20260505003536 11 0 0.0 4.8 0.00 0.00 0.00 78 1017.2
20260505003051 11 350 0.0 6.4 0.00 0.00 0.00 80 1017.2
20260505002534 11 350 3.2 6.4 0.00 0.00 0.00 81 1017.2
20260505002036 11 349 3.2 6.4 0.00 0.00 0.00 83 1017.3
20260505001547 10 350 3.2 6.4 0.00 0.00 0.00 83 1017.3
20260505001035 10 348 3.2 4.8 0.00 0.00 0.00 84 1017.3
20260505000534 10 0 0.0 6.4 0.00 0.00 0.00 84 1017.3
20260505000054 10 349 0.0 6.4 0.00 0.00 0.00 85 1017.4
20260504235533 10 349 3.2 6.4 0.00 0.00 0.00 86 1017.5
20260504235033 10 334 1.6 4.8 0.00 0.00 0.00 85 1017.5
20260504234554 9 334 0.0 3.2 0.00 0.00 0.00 85 1017.6
20260504234033 9 0 0.0 4.8 0.00 0.00 0.00 84 1017.6
20260504233533 9 334 1.6 4.8 0.00 0.00 0.00 84 1017.5
20260504233053 9 334 1.6 4.8 0.00 0.00 0.00 84 1017.6
20260504232534 9 334 1.6 3.2 0.00 0.00 0.00 83 1017.7
20260504232032 9 0 0.0 0.0 0.00 0.00 0.00 83 1017.7
20260504231550 9 0 0.0 0.0 0.00 0.00 0.00 83 1017.7
20260504231033 9 0 0.0 0.0 0.00 0.00 0.00 83 1017.7
20260504230534 9 0 0.0 1.6 0.00 0.00 0.00 83 1017.8
20260504230107 9 0 0.0 1.6 0.00 0.00 0.00 83 1017.8
20260504225533 9 334 0.0 1.6 0.00 0.00 0.00 83 1017.9
20260504225033 9 0 0.0 1.6 0.00 0.00 0.00 82 1017.9
20260504224601 9 0 0.0 0.0 0.00 0.00 0.00 82 1018.1
20260504224033 9 0 0.0 0.0 0.00 0.00 0.00 82 1018.0
20260504223535 9 0 0.0 1.6 0.00 0.00 0.00 81 1018.1
20260504223052 9 0 0.0 1.6 0.00 0.00 0.00 81 1018.1
20260504222532 10 0 0.0 1.6 0.00 0.00 0.00 81 1018.3
20260504222033 10 0 0.0 4.8 0.00 0.00 0.00 81 1018.2
20260504221550 10 0 0.0 4.8 0.00 0.00 0.00 81 1018.2
20260504221033 10 334 1.6 4.8 0.00 0.00 0.00 81 1018.2
20260504220533 10 334 0.0 3.2 0.00 0.00 0.00 80 1018.3
20260504220055 10 0 0.0 3.2 0.00 0.00 0.00 80 1018.3
20260504215533 10 334 0.0 3.2 0.00 0.00 0.00 80 1018.3
20260504215035 10 334 0.0 3.2 0.00 0.00 0.00 80 1018.3
20260504214548 10 334 0.0 3.2 0.00 0.00 0.00 79 1018.4
20260504214032 10 0 0.0 3.2 0.00 0.00 0.00 79 1018.3
20260504213532 10 0 0.0 3.2 0.00 0.00 0.00 79 1018.3
20260504213048 10 334 1.6 3.2 0.00 0.00 0.00 78 1018.3
20260504212533 10 334 1.6 3.2 0.00 0.00 0.00 77 1018.2
20260504212034 10 0 0.0 0.0 0.00 0.00 0.00 77 1018.3
20260504211557 10 0 0.0 0.0 0.00 0.00 0.00 77 1018.2
20260504211034 11 0 0.0 1.6 0.00 0.00 0.00 77 1018.3
20260504210534 11 0 0.0 1.6 0.00 0.00 0.00 77 1018.2
20260504210100 11 334 0.0 3.2 0.00 0.00 0.00 77 1018.3
20260504205536 11 0 0.0 3.2 0.00 0.00 0.00 76 1018.4
20260504205035 11 334 0.0 3.2 0.00 0.00 0.00 76 1018.4
20260504204553 11 334 0.0 3.2 0.00 0.00 0.00 76 1018.3
20260504204035 11 0 0.0 3.2 0.00 0.00 0.00 76 1018.4
20260504203535 11 0 0.0 3.2 0.00 0.00 0.00 75 1018.4
20260504203046 11 334 0.0 3.2 0.00 0.00 0.00 75 1018.4
20260504202533 11 334 0.0 6.4 0.00 0.00 0.00 76 1018.4
20260504202033 11 0 0.0 6.4 0.00 0.00 0.00 75 1018.5
20260504201557 11 334 1.6 6.4 0.00 0.00 0.00 75 1018.5
20260504201037 11 334 0.0 6.4 0.00 0.00 0.00 75 1018.5
20260504200536 11 0 0.0 4.8 0.00 0.00 0.00 74 1018.5
20260504200100 11 0 0.0 4.8 0.00 0.00 0.00 74 1018.7
20260504195536 11 334 0.0 4.8 0.00 0.00 0.00 74 1018.4
20260504195035 12 336 1.6 4.8 0.00 0.00 0.00 74 1018.4
20260504194550 12 0 0.0 3.2 0.00 0.00 0.00 73 1018.4
20260504194036 12 0 0.0 1.6 0.00 0.00 0.00 73 1018.5
20260504193536 12 0 0.0 4.8 0.00 0.00 0.00 73 1018.5
20260504193049 12 0 0.0 4.8 0.00 0.00 0.00 72 1018.5
20260504192533 12 233 1.6 4.8 0.00 0.00 0.00 72 1018.4
20260504192037 12 234 1.6 6.4 0.00 0.00 0.00 72 1018.5
20260504191606 12 234 3.2 6.4 0.00 0.00 0.00 72 1018.3
20260504191036 12 235 0.0 4.8 0.00 0.00 0.00 71 1018.4
20260504190535 12 0 0.0 4.8 0.00 0.00 0.00 71 1018.4
20260504190051 12 235 1.6 6.4 0.00 0.00 0.00 71 1018.4
20260504185534 12 235 0.0 6.4 0.00 0.00 0.00 71 1018.3
20260504185037 12 236 3.2 6.4 0.00 0.00 0.00 70 1018.2
20260504184548 12 352 1.6 4.8 0.00 0.00 0.00 70 1018.3
20260504184037 12 0 0.0 3.2 0.00 0.00 0.00 69 1018.2
20260504183535 12 348 0.0 3.2 0.00 0.00 0.00 69 1018.2
20260504183050 12 0 0.0 3.2 0.00 0.00 0.00 68 1018.2
20260504182534 12 0 0.0 3.2 0.00 0.00 0.00 68 1018.2
20260504182035 13 0 1.6 3.2 0.00 0.00 0.00 67 1018.2
20260504181556 13 0 0.0 1.6 0.00 0.00 0.00 66 1018.1
20260504181035 13 0 0.0 1.6 0.00 0.00 0.00 66 1018.0
20260504180538 13 0 0.0 0.0 0.00 0.00 0.00 66 1018.1
20260504180050 13 0 0.0 0.0 0.00 0.00 0.00 65 1018.0
20260504175535 13 0 0.0 0.0 0.00 0.00 0.00 65 1018.0
20260504175035 14 0 0.0 1.6 0.00 0.00 0.00 64 1018.0
20260504174555 14 0 0.0 1.6 0.00 0.00 0.00 63 1017.9
20260504174034 14 0 0.0 4.8 0.00 0.00 0.00 63 1017.9
20260504173533 14 0 0.0 4.8 0.00 0.00 0.00 63 1017.9
20260504173049 15 348 1.6 4.8 0.00 0.00 0.00 63 1017.8
20260504172533 15 0 0.0 6.4 0.00 0.00 0.00 63 1017.9
20260504172033 15 0 1.6 6.4 0.00 0.00 0.00 63 1017.8
20260504171548 15 348 3.2 8.0 0.00 0.00 0.00 63 1017.7
20260504171031 15 347 3.2 9.7 0.00 0.00 0.00 63 1017.8
20260504170534 15 349 1.6 9.7 0.00 0.00 0.00 63 1017.8
20260504151035 17 349 8.0 17.7 0.00 0.00 0.00 49 1017.7
20260504150533 17 350 4.8 17.7 0.00 0.00 0.00 48 1017.6
20260504141034 17 350 9.7 20.9 0.00 0.00 0.00 45 1017.7
20260504140533 17 350 9.7 19.3 0.00 0.00 0.00 46 1017.8
20260504130534 20 352 11.3 27.4 0.00 0.15 0.00 33 1017.6
20260504120117 20 336 8.0 16.1 0.00 0.18 0.00 35 1018.2
20260504110533 18 352 14.5 30.6 0.00 0.18 0.00 39 1019.0
20260504100532 17 352 12.9 20.9 0.00 0.18 0.00 42 1019.5
20260504081600 15 351 1.6 24.1 0.00 0.18 0.00 45 1019.7
20260504081033 15 351 6.4 24.1 0.00 0.18 0.00 46 1019.6
20260504080534 15 352 11.3 24.1 0.00 0.18 0.00 46 1019.6
20260504050534 10 0 0.0 3.2 0.00 0.18 0.00 69 1018.8
20260504045534 10 350 0.0 3.2 0.00 0.18 0.00 70 1018.7